Time,TemperatureF,DewpointF,PressureIn,WindDirection,WindDirectionDegrees,WindSpeedMPH,WindSpeedGustMPH,Humidity,HourlyPrecipIn,Conditions,Clouds,dailyrainin,SoftwareType,DateUTC
2013-03-09 00:01:00,32.0,24.0,30.38,SSE,151,5.0,9.0,73,-99.99,,,-99.99,,2013-03-09 06:01:00,
2013-03-09 00:11:00,32.0,24.0,30.38,SSE,151,5.0,9.0,73,-99.99,,,-99.99,,2013-03-09 06:11:00,
2013-03-09 00:22:00,32.0,24.0,30.38,SSE,151,5.0,9.0,73,-99.99,,,-99.99,,2013-03-09 06:22:00,
2013-03-09 00:31:00,32.0,24.0,30.37,SE,145,3.0,10.0,73,-99.99,,,-99.99,,2013-03-09 06:31:00,
2013-03-09 00:42:00,32.0,24.0,30.37,SE,145,3.0,10.0,73,-99.99,,,-99.99,,2013-03-09 06:42:00,
2013-03-09 00:51:00,32.0,24.0,30.36,SSE,148,8.0,10.0,73,-99.99,,,-99.99,,2013-03-09 06:51:00,
2013-03-09 01:01:00,32.0,24.0,30.36,SSE,151,8.0,13.0,73,-99.99,,,-99.99,,2013-03-09 07:01:00,
2013-03-09 01:11:00,32.0,24.0,30.36,SSE,151,8.0,13.0,73,-99.99,,,-99.99,,2013-03-09 07:11:00,
2013-03-09 01:21:00,33.0,26.0,30.35,SE,146,4.0,11.0,74,-99.99,,,-99.99,,2013-03-09 07:21:00,
2013-03-09 01:31:00,33.0,26.0,30.34,SE,146,5.0,9.0,74,-99.99,,,-99.99,,2013-03-09 07:31:00,
2013-03-09 01:41:00,33.0,26.0,30.34,SE,146,5.0,9.0,74,-99.99,,,-99.99,,2013-03-09 07:41:00,
2013-03-09 01:51:00,33.0,26.0,30.34,SSE,150,7.0,10.0,74,-99.99,,,-99.99,,2013-03-09 07:51:00,
2013-03-09 02:01:00,33.0,26.0,30.32,SE,141,6.0,12.0,74,-99.99,,,-99.99,,2013-03-09 08:01:00,
2013-03-09 02:11:00,33.0,26.0,30.32,SE,141,6.0,12.0,74,-99.99,,,-99.99,,2013-03-09 08:11:00,
2013-03-09 02:21:00,34.0,27.0,30.32,SSE,160,5.0,13.0,74,-99.99,,,-99.99,,2013-03-09 08:21:00,
2013-03-09 02:31:00,34.0,27.0,30.31,SSE,155,5.0,8.0,74,-99.99,,,-99.99,,2013-03-09 08:31:00,
2013-03-09 02:41:00,34.0,27.0,30.31,SSE,155,5.0,8.0,74,-99.99,,,-99.99,,2013-03-09 08:41:00,
2013-03-09 02:52:00,34.0,27.0,30.31,SSE,155,5.0,8.0,74,-99.99,,,-99.99,,2013-03-09 08:52:00,
2013-03-09 03:01:00,34.0,27.0,30.30,South,169,3.0,11.0,74,-99.99,,,-99.99,,2013-03-09 09:01:00,
2013-03-09 03:12:00,34.0,27.0,30.30,South,169,3.0,11.0,74,-99.99,,,-99.99,,2013-03-09 09:12:00,
2013-03-09 03:21:00,34.0,27.0,30.29,SSE,157,3.0,8.0,74,-99.99,,,-99.99,,2013-03-09 09:21:00,
2013-03-09 03:32:00,34.0,27.0,30.30,South,169,3.0,5.0,74,-99.99,,,-99.99,,2013-03-09 09:32:00,
2013-03-09 03:41:00,34.0,27.0,30.30,South,169,3.0,5.0,74,-99.99,,,-99.99,,2013-03-09 09:41:00,
2013-03-09 03:52:00,34.0,27.0,30.31,South,180,1.0,3.0,74,-99.99,,,-99.99,,2013-03-09 09:52:00,
2013-03-09 04:01:00,34.0,26.0,30.30,SSE,157,0.0,0.0,73,-99.99,,,-99.99,,2013-03-09 10:01:00,
2013-03-09 04:11:00,34.0,26.0,30.30,SSE,157,0.0,0.0,73,-99.99,,,-99.99,,2013-03-09 10:11:00,
2013-03-09 04:21:00,34.0,26.0,30.30,SSE,157,1.0,4.0,73,-99.99,,,-99.99,,2013-03-09 10:21:00,
2013-03-09 04:31:00,34.0,26.0,30.30,SSE,157,1.0,4.0,73,-99.99,,,-99.99,,2013-03-09 10:31:00,
2013-03-09 04:41:00,34.0,26.0,30.30,SSE,157,1.0,4.0,73,-99.99,,,-99.99,,2013-03-09 10:41:00,
2013-03-09 04:51:00,34.0,27.0,30.28,ESE,122,1.0,5.0,74,-99.99,,,-99.99,,2013-03-09 10:51:00,
2013-03-09 05:01:00,34.0,27.0,30.28,SE,132,3.0,7.0,74,-99.99,,,-99.99,,2013-03-09 11:01:00,
2013-03-09 05:11:00,34.0,27.0,30.28,SE,132,3.0,7.0,74,-99.99,,,-99.99,,2013-03-09 11:11:00,
2013-03-09 05:21:00,34.0,27.0,30.27,SSE,157,3.0,7.0,74,-99.99,,,-99.99,,2013-03-09 11:21:00,
2013-03-09 05:32:00,34.0,27.0,30.27,SSE,157,0.0,5.0,74,-99.99,,,-99.99,,2013-03-09 11:32:00,
2013-03-09 05:41:00,34.0,27.0,30.27,SSE,157,0.0,5.0,74,-99.99,,,-99.99,,2013-03-09 11:41:00,
2013-03-09 05:52:00,34.0,27.0,30.27,SSE,150,3.0,5.0,74,-99.99,,,-99.99,,2013-03-09 11:52:00,
2013-03-09 06:01:00,35.0,28.0,30.26,SE,142,4.0,8.0,74,-99.99,,,-99.99,,2013-03-09 12:01:00,
2013-03-09 06:11:00,35.0,28.0,30.26,SE,142,4.0,8.0,74,-99.99,,,-99.99,,2013-03-09 12:11:00,
2013-03-09 06:21:00,35.0,28.0,30.25,SE,140,4.0,11.0,74,-99.99,,,-99.99,,2013-03-09 12:21:00,
2013-03-09 06:32:00,35.0,27.0,30.21,SE,135,6.0,12.0,73,-99.99,,,-99.99,,2013-03-09 12:32:00,
2013-03-09 06:42:00,35.0,27.0,30.21,SE,135,6.0,12.0,73,-99.99,,,-99.99,,2013-03-09 12:42:00,
2013-03-09 06:52:00,35.0,28.0,30.20,ESE,121,8.0,19.0,74,-99.99,,,-99.99,,2013-03-09 12:52:00,
2013-03-09 07:02:00,35.0,28.0,30.22,SE,146,5.0,11.0,75,-99.99,,,-99.99,,2013-03-09 13:02:00,
2013-03-09 07:11:00,35.0,28.0,30.22,SE,146,5.0,11.0,75,-99.99,,,-99.99,,2013-03-09 13:11:00,
2013-03-09 07:21:00,35.0,28.0,30.22,SSE,151,8.0,13.0,76,-99.99,,,-99.99,,2013-03-09 13:21:00,
2013-03-09 07:31:00,35.0,29.0,30.21,SSE,162,5.0,12.0,77,-99.99,,,-99.99,,2013-03-09 13:31:00,
2013-03-09 07:42:00,35.0,29.0,30.21,SSE,162,5.0,12.0,77,-99.99,,,-99.99,,2013-03-09 13:42:00,
2013-03-09 07:52:00,35.0,29.0,30.21,SSE,155,3.0,8.0,77,-99.99,,,-99.99,,2013-03-09 13:52:00,
2013-03-09 08:01:00,35.0,29.0,30.20,SSE,157,2.0,9.0,78,-99.99,,,-99.99,,2013-03-09 14:01:00,
2013-03-09 08:11:00,35.0,29.0,30.20,SSE,157,2.0,9.0,78,-99.99,,,-99.99,,2013-03-09 14:11:00,
2013-03-09 08:21:00,35.0,29.0,30.20,SSE,157,2.0,9.0,78,-99.99,,,-99.99,,2013-03-09 14:21:00,
2013-03-09 08:31:00,35.0,29.0,30.19,SSE,161,5.0,8.0,79,-99.99,,,-99.99,,2013-03-09 14:31:00,
2013-03-09 08:41:00,35.0,29.0,30.19,SSE,161,5.0,8.0,79,-99.99,,,-99.99,,2013-03-09 14:41:00,
2013-03-09 08:52:00,36.0,30.0,30.18,SSE,152,3.0,8.0,80,-99.99,,,-99.99,,2013-03-09 14:52:00,
2013-03-09 09:01:00,37.0,31.0,30.18,SE,135,2.0,7.0,80,-99.99,,,-99.99,,2013-03-09 15:01:00,
2013-03-09 09:11:00,37.0,31.0,30.18,SE,135,2.0,7.0,80,-99.99,,,-99.99,,2013-03-09 15:11:00,
2013-03-09 09:22:00,37.0,31.0,30.17,SE,139,3.0,7.0,80,-99.99,,,-99.99,,2013-03-09 15:22:00,
2013-03-09 09:31:00,38.0,32.0,30.17,South,170,4.0,14.0,79,-99.99,,,-99.99,,2013-03-09 15:31:00,
2013-03-09 09:42:00,38.0,32.0,30.17,South,170,4.0,14.0,79,-99.99,,,-99.99,,2013-03-09 15:42:00,
2013-03-09 09:52:00,38.0,32.0,30.15,SSE,149,9.0,17.0,79,-99.99,,,-99.99,,2013-03-09 15:52:00,
2013-03-09 10:01:00,38.0,32.0,30.14,SSE,167,9.0,18.0,78,-99.99,,,-99.99,,2013-03-09 16:01:00,
2013-03-09 10:11:00,38.0,32.0,30.14,SSE,167,9.0,18.0,78,-99.99,,,-99.99,,2013-03-09 16:11:00,
2013-03-09 10:21:00,39.0,32.0,30.14,SSE,149,10.0,19.0,77,-99.99,,,-99.99,,2013-03-09 16:21:00,
2013-03-09 10:32:00,39.0,32.0,30.14,SSE,149,10.0,19.0,77,-99.99,,,-99.99,,2013-03-09 16:32:00,
2013-03-09 10:41:00,39.0,32.0,30.14,SSE,149,10.0,19.0,77,-99.99,,,-99.99,,2013-03-09 16:41:00,
2013-03-09 10:51:00,39.0,32.0,30.12,SSE,164,11.0,23.0,77,-99.99,,,-99.99,,2013-03-09 16:51:00,
2013-03-09 11:01:00,39.0,32.0,30.12,SSE,153,7.0,19.0,77,-99.99,,,-99.99,,2013-03-09 17:01:00,
2013-03-09 11:11:00,39.0,32.0,30.12,SSE,153,7.0,19.0,77,-99.99,,,-99.99,,2013-03-09 17:11:00,
2013-03-09 11:22:00,39.0,32.0,30.11,South,174,10.0,22.0,77,-99.99,,,-99.99,,2013-03-09 17:22:00,
2013-03-09 11:32:00,39.0,32.0,30.10,South,185,11.0,17.0,77,-99.99,,,-99.99,,2013-03-09 17:32:00,
2013-03-09 11:42:00,39.0,32.0,30.10,South,185,11.0,17.0,77,-99.99,,,-99.99,,2013-03-09 17:42:00,
2013-03-09 11:52:00,39.0,32.0,30.10,South,179,10.0,22.0,77,-99.99,,,-99.99,,2013-03-09 17:52:00,
2013-03-09 12:01:00,39.0,32.0,30.09,SSE,156,5.0,22.0,76,-99.99,,,-99.99,,2013-03-09 18:01:00,
2013-03-09 12:11:00,39.0,32.0,30.09,SSE,156,5.0,22.0,76,-99.99,,,-99.99,,2013-03-09 18:11:00,
2013-03-09 12:21:00,39.0,32.0,30.08,South,172,7.0,21.0,76,-99.99,,,-99.99,,2013-03-09 18:21:00,
2013-03-09 12:31:00,39.0,32.0,30.07,SSE,164,8.0,12.0,77,-99.99,,,-99.99,,2013-03-09 18:31:00,
2013-03-09 12:42:00,39.0,32.0,30.07,SSE,164,8.0,12.0,77,-99.99,,,-99.99,,2013-03-09 18:42:00,
2013-03-09 12:52:00,39.0,32.0,30.07,SSE,168,8.0,16.0,77,-99.99,,,-99.99,,2013-03-09 18:52:00,
2013-03-09 13:01:00,39.0,33.0,30.06,South,181,10.0,17.0,78,-99.99,,,-99.99,,2013-03-09 19:01:00,
2013-03-09 13:11:00,39.0,33.0,30.06,South,181,10.0,17.0,78,-99.99,,,-99.99,,2013-03-09 19:11:00,
2013-03-09 13:22:00,39.0,33.0,30.06,SSW,195,6.0,17.0,78,-99.99,,,-99.99,,2013-03-09 19:22:00,
2013-03-09 13:32:00,39.0,33.0,30.04,SSE,161,7.0,21.0,79,-99.99,,,-99.99,,2013-03-09 19:32:00,
2013-03-09 13:42:00,39.0,33.0,30.04,SSE,161,7.0,21.0,79,-99.99,,,-99.99,,2013-03-09 19:42:00,
2013-03-09 13:52:00,39.0,33.0,30.04,South,188,8.0,14.0,79,-99.99,,,-99.99,,2013-03-09 19:52:00,
2013-03-09 14:01:00,39.0,33.0,30.04,South,190,8.0,20.0,79,-99.99,,,-99.99,,2013-03-09 20:01:00,
2013-03-09 14:11:00,39.0,33.0,30.04,South,190,8.0,20.0,79,-99.99,,,-99.99,,2013-03-09 20:11:00,
2013-03-09 14:21:00,39.0,33.0,30.03,South,170,9.0,15.0,80,-99.99,,,-99.99,,2013-03-09 20:21:00,
2013-03-09 14:32:00,38.0,33.0,30.01,South,170,6.0,14.0,81,-99.99,,,-99.99,,2013-03-09 20:32:00,
2013-03-09 14:42:00,38.0,33.0,30.01,South,170,6.0,14.0,81,-99.99,,,-99.99,,2013-03-09 20:42:00,
2013-03-09 14:52:00,38.0,33.0,30.00,SSE,151,6.0,12.0,82,-99.99,,,-99.99,,2013-03-09 20:52:00,
2013-03-09 15:02:00,39.0,34.0,29.99,SSE,162,6.0,11.0,82,-99.99,,,-99.99,,2013-03-09 21:02:00,
2013-03-09 15:12:00,39.0,34.0,29.99,SSE,162,6.0,11.0,82,-99.99,,,-99.99,,2013-03-09 21:12:00,
2013-03-09 15:21:00,39.0,34.0,29.99,SE,145,5.0,14.0,82,-99.99,,,-99.99,,2013-03-09 21:21:00,
2013-03-09 15:32:00,39.0,34.0,29.98,SE,134,7.0,13.0,82,-99.99,,,-99.99,,2013-03-09 21:32:00,
2013-03-09 15:42:00,39.0,34.0,29.98,SE,134,7.0,13.0,82,-99.99,,,-99.99,,2013-03-09 21:42:00,
2013-03-09 15:52:00,39.0,34.0,29.97,SE,135,3.0,11.0,82,-99.99,,,-99.99,,2013-03-09 21:52:00,
2013-03-09 16:01:00,39.0,34.0,29.97,SSE,158,8.0,16.0,82,-99.99,,,-99.99,,2013-03-09 22:01:00,
2013-03-09 16:11:00,39.0,34.0,29.97,SSE,158,8.0,16.0,82,-99.99,,,-99.99,,2013-03-09 22:11:00,
2013-03-09 16:21:00,39.0,34.0,29.97,South,177,4.0,11.0,82,-99.99,,,-99.99,,2013-03-09 22:21:00,
2013-03-09 16:32:00,39.0,34.0,29.96,SSE,157,4.0,9.0,82,-99.99,,,-99.99,,2013-03-09 22:32:00,
2013-03-09 16:41:00,39.0,34.0,29.96,SSE,157,4.0,9.0,82,-99.99,,,-99.99,,2013-03-09 22:41:00,
2013-03-09 16:52:00,39.0,34.0,29.96,South,178,3.0,7.0,83,-99.99,,,-99.99,,2013-03-09 22:52:00,
2013-03-09 17:01:00,39.0,34.0,29.96,SSW,202,0.0,6.0,83,-99.99,,,-99.99,,2013-03-09 23:01:00,
2013-03-09 17:11:00,39.0,34.0,29.96,SSW,202,0.0,6.0,83,-99.99,,,-99.99,,2013-03-09 23:11:00,
2013-03-09 17:21:00,39.0,34.0,29.98,SW,225,0.0,3.0,83,-99.99,,,-99.99,,2013-03-09 23:21:00,
2013-03-09 17:32:00,38.0,33.0,29.98,SSW,202,0.0,5.0,83,-99.99,,,-99.99,,2013-03-09 23:32:00,
2013-03-09 17:41:00,38.0,33.0,29.98,SSW,202,0.0,5.0,83,-99.99,,,-99.99,,2013-03-09 23:41:00,
2013-03-09 17:52:00,38.0,34.0,29.97,SSE,148,3.0,6.0,84,-99.99,,,-99.99,,2013-03-09 23:52:00,
2013-03-09 18:01:00,38.0,34.0,29.97,SE,139,5.0,7.0,84,-99.99,,,-99.99,,2013-03-10 00:01:00,
2013-03-09 18:11:00,38.0,34.0,29.97,SE,139,5.0,7.0,84,-99.99,,,-99.99,,2013-03-10 00:11:00,
2013-03-09 18:22:00,38.0,34.0,29.97,SE,143,3.0,5.0,85,-99.99,,,-99.99,,2013-03-10 00:22:00,
2013-03-09 18:32:00,37.0,33.0,29.97,SSE,157,3.0,6.0,85,-99.99,,,-99.99,,2013-03-10 00:32:00,
2013-03-09 18:42:00,37.0,33.0,29.97,SSE,157,3.0,6.0,85,-99.99,,,-99.99,,2013-03-10 00:42:00,
2013-03-09 18:52:00,37.0,33.0,29.96,SSE,154,2.0,5.0,85,-99.99,,,-99.99,,2013-03-10 00:52:00,
2013-03-09 19:01:00,37.0,33.0,29.96,SSE,166,3.0,7.0,86,-99.99,,,-99.99,,2013-03-10 01:01:00,
2013-03-09 19:11:00,37.0,33.0,29.96,SSE,166,3.0,7.0,86,-99.99,,,-99.99,,2013-03-10 01:11:00,
2013-03-09 19:21:00,38.0,34.0,29.96,SSE,157,4.0,7.0,86,-99.99,,,-99.99,,2013-03-10 01:21:00,
2013-03-09 19:31:00,38.0,34.0,29.96,SSE,157,3.0,9.0,86,-99.99,,,-99.99,,2013-03-10 01:31:00,
2013-03-09 19:41:00,38.0,34.0,29.96,SSE,157,3.0,9.0,86,-99.99,,,-99.99,,2013-03-10 01:41:00,
2013-03-09 19:52:00,38.0,34.0,29.96,SSE,157,2.0,8.0,86,-99.99,,,-99.99,,2013-03-10 01:52:00,
2013-03-09 20:01:00,38.0,34.0,29.97,South,180,1.0,6.0,86,-99.99,,,-99.99,,2013-03-10 02:01:00,
2013-03-09 20:11:00,38.0,34.0,29.97,South,180,1.0,6.0,86,-99.99,,,-99.99,,2013-03-10 02:11:00,
2013-03-09 20:22:00,38.0,34.0,29.96,SSE,164,4.0,5.0,86,-99.99,,,-99.99,,2013-03-10 02:22:00,
2013-03-09 20:31:00,38.0,34.0,29.96,SSE,162,5.0,6.0,86,-99.99,,,-99.99,,2013-03-10 02:31:00,
2013-03-09 20:42:00,38.0,34.0,29.96,SSE,162,5.0,6.0,86,-99.99,,,-99.99,,2013-03-10 02:42:00,
2013-03-09 20:52:00,38.0,34.0,29.96,South,181,4.0,10.0,86,-99.99,,,-99.99,,2013-03-10 02:52:00,
2013-03-09 21:01:00,38.0,34.0,29.95,SSE,157,1.0,5.0,87,-99.99,,,-99.99,,2013-03-10 03:01:00,
2013-03-09 21:11:00,38.0,34.0,29.95,SSE,157,0.0,0.0,87,-99.99,,,-99.99,,2013-03-10 03:11:00,
2013-03-09 21:22:00,38.0,34.0,29.95,SSE,157,0.0,0.0,87,-99.99,,,-99.99,,2013-03-10 03:22:00,
2013-03-09 21:31:00,37.0,34.0,29.96,SSE,161,3.0,6.0,87,-99.99,,,-99.99,,2013-03-10 03:31:00,
2013-03-09 21:42:00,38.0,34.0,29.97,SW,225,3.0,6.0,87,-99.99,,,-99.99,,2013-03-10 03:42:00,
2013-03-09 21:52:00,38.0,34.0,29.97,SW,225,3.0,6.0,87,-99.99,,,-99.99,,2013-03-10 03:52:00,
2013-03-09 22:01:00,38.0,34.0,29.97,South,180,0.0,3.0,87,-99.99,,,-99.99,,2013-03-10 04:01:00,
2013-03-09 22:11:00,38.0,34.0,29.96,SE,135,3.0,7.0,87,-99.99,,,-99.99,,2013-03-10 04:11:00,
2013-03-09 22:21:00,38.0,34.0,29.96,SE,135,3.0,7.0,87,-99.99,,,-99.99,,2013-03-10 04:21:00,
2013-03-09 22:31:00,38.0,34.0,29.97,SSW,196,5.0,7.0,87,-99.99,,,-99.99,,2013-03-10 04:31:00,
2013-03-09 22:41:00,38.0,34.0,29.97,SSW,196,5.0,7.0,87,-99.99,,,-99.99,,2013-03-10 04:41:00,
2013-03-09 22:52:00,38.0,34.0,29.97,SSW,195,3.0,6.0,87,-99.99,,,-99.99,,2013-03-10 04:52:00,
2013-03-09 23:01:00,38.0,34.0,29.96,SSW,192,5.0,9.0,87,-99.99,,,-99.99,,2013-03-10 05:01:00,
2013-03-09 23:11:00,38.0,34.0,29.96,SSW,192,5.0,9.0,87,-99.99,,,-99.99,,2013-03-10 05:11:00,
2013-03-09 23:22:00,38.0,34.0,29.96,SSE,157,2.0,7.0,87,-99.99,,,-99.99,,2013-03-10 05:22:00,
2013-03-09 23:31:00,38.0,34.0,29.96,SSE,157,0.0,0.0,87,-99.99,,,-99.99,,2013-03-10 05:31:00,
2013-03-09 23:42:00,38.0,34.0,29.96,SSE,157,0.0,0.0,87,-99.99,,,-99.99,,2013-03-10 05:42:00,
2013-03-09 23:52:00,38.0,34.0,29.96,SSE,157,0.0,0.0,87,-99.99,,,-99.99,,2013-03-10 05:52:00,